Regional Weather Roundup
Issued by NWS Charleston, SC

Current Version | Previous Version | Graphics & Text | Print | Product List | Glossary On
Versions: 1 2 3 4 5 6 7 8 9 10 11 12 13 14 15 16 17 18 19 20 21 22 23 24 25 26 27 28 29 30 31 32 33 34 35 36 37 38 39 40 41 42 43 44 45 46 47 48 49 50
000
ASUS42 KCHS 221910
RWRCHS
REGIONAL WEATHER ROUNDUP
NATIONAL WEATHER SERVICE CHARLESTON SC
200 PM EST MON DEC 22 2014

NOTE: "FAIR" INDICATES FEW OR NO CLOUDS BELOW 12,000 FEET WITH NO
SIGNIFICANT WEATHER AND/OR OBSTRUCTIONS TO VISIBILITY.

NOT ALL STATIONS ARE QUALITY CONTROLLED BY THE NATIONAL
WEATHER SERVICE. USE DATA WITH CAUTION...ESPECIALLY
DEWPOINT OBSERVATIONS.

SCZ027-030-031-034>040-042>050-222000-
...SOUTHEAST SOUTH CAROLINA...

CITY           SKY/WX    TMP DP  RH WIND       PRES   REMARKS
N CHARLESTON   LGT RAIN  47  46  97 N12       29.99F
WATERFRONT PRK   N/A     48 N/A N/A N8          N/A
MOUNT PLEASANT NOT AVBL
PINOPOLIS        N/A     46  45  93 VRB3      29.93
MONCKS CORNER  LGT RAIN  46  45  93 N7        30.01S
SUMMERVILLE    RAIN      45  45 100 N5        30.00F
BEAUFORT MCAS  TSTM      48  47  96 W3        30.00S FOG
BEAUFORT ARPT  SNOW      48  48 100 CALM      29.98R VSB 1/4
HILTON HEAD IS HVY RAIN  48  48 100 NW12G18   30.03R
WALTERBORO     RAIN      46 N/A N/A N5        30.00F
ALLENDALE      LGT RAIN  46  45  93 N7        29.98F

...SOUTHERN MIDLANDS AND PEE DEE...

CITY           SKY/WX    TMP DP  RH WIND       PRES   REMARKS
GEORGETOWN     NOT AVBL
KINGSTREE      NOT AVBL
ORANGEBURG     LGT RAIN  45  43  93 NE9       29.98F FOG
BARNWELL       CLOUDY    46  46 100 NE10      29.97F
AIKEN          NOT AVBL
MANNING        NOT AVBL
COLUMBIA       CLOUDY    45  43  93 N6        30.01F
SUMTER         NOT AVBL
FLORENCE       LGT RAIN  43  41  93 N8        30.04R FOG
MYRTLE BEACH   LGT RAIN  46  45  93 N12       29.99F FOG
N MYRTLE BEACH CLOUDY    47  44  90 N10       29.99F

$$

GAZ063-065-086>088-099>101-113>116-118-119-134>141-150-222000-
...SOUTHEAST GEORGIA...

CITY           SKY/WX    TMP DP  RH WIND       PRES   REMARKS
SAVANNAH ARPT  HVY RAIN  50  49  96 E8        29.97F VSB 1
HUNTER AAF     NOT AVBL
FORT STEWART   NOT AVBL
STATESBORO     LGT RAIN  47  47 100 NE3       29.96F
SYLVANIA       RAIN      46  46 100 NE5       29.98R
CLAXTON        RAIN      48  48 100 NE7       29.95F

...CSRA...CENTRAL AND FAR SOUTHEAST GEORGIA...

CITY           SKY/WX    TMP DP  RH WIND       PRES   REMARKS
THOMSON        CLOUDY    47  47 100 NE3       30.03R
AUGUSTA-BUSH   LGT RAIN  47  45  93 E5        29.98F FOG
AUGUSTA-DANIEL CLOUDY    47  46  97 N6        30.00R
SWAINSBORO     CLOUDY   N/A N/A N/A E7        29.96S
VIDALIA        CLOUDY    50  50 100 NE7       29.94F
EASTMAN        CLOUDY    51  51 100 E6        29.95F
HAZLEHURST     CLOUDY    52  52 100 E6        29.91F FOG
ALMA           CLOUDY    51  50  96 E7        29.92F
WAYCROSS       LGT RAIN  55  55  99 E8        29.92F
JESUP          LGT RAIN  54  54 100 NE6       29.96F
BAXLEY         CLOUDY    54  54 100 SE7       29.91F
BRUNSWICK      CLOUDY    55  54  94 CALM      29.96F
SAINT SIMONS   LGT RAIN  57  56  96 N7        29.94F FOG

$$

SCZ027-028-034-036>038-045-046-048>050-GAZ119-141-222000-
...LAKE AND SUPPLEMENTAL COASTAL OBSERVATIONS...

STATION/POSITION TIME  TEMP    WIND        PRES    WAVE   SWELL
                       AIR SEA DIR/SP/G            HT/PER HT/PER/DIR
                 (UTC) (F)     (DEG/KT/KT) (MB)    (FT/S) (FT/S/D)
UPR LAKE MARION  NOT AVBL
WINYAH BAY       1800   45     360/  3     1016.0S
LAKE MURRAY      1800   43      40/  2/  6 1016.3F
ACE BASIN NERRS  1800   48      30/  3     1015.0S
FORT PULASKI     1900   50 55  320/  9/ 12 1016.0R
SAPELO ISLAND    1800   54      50/  7     1014.0F

$$

ANZ835-935-AMZ111-154-330-350-352-354-370-450-454-472-222000-
...C-MAN AND BUOY OBSERVATIONS...

STATION/POSITION TIME  TEMP    WIND        PRES    WAVE   SWELL
                       AIR SEA DIR/SP/G            HT/PER HT/PER/DIR
                 (UTC) (F)     (DEG/KT/KT) (MB)    (FT/S) (FT/S/D)
BUOY 41004       1900   60 73   30/ 12/ 16 1014.2F   5/ 8   3/ 8
BUOY 41008       1900   58 59   70/ 10/ 12 1013.9F   4/ 5   3/120/ 5
FOLLY BEACH CMAN 1800   48      10/  7/  9 1015.7F
CAPERS NEARSHORE 1800   48      30/ 12/ 14   N/A
FRIPP NEARSHORE  NOT AVBL


STATION/POSITION TIME  TEMP    WIND        PRES    WAVE   SWELL
                       AIR SEA DIR/SP/G            HT/PER HT/PER/DIR
                 (UTC) (F)     (DEG/KT/KT) (MB)    (FT/S) (FT/S/D)
5E ST. MARYS GA  1900      60                N/A     3/ 9
FRYING PAN BUOY  1900   55 69  360/ 12/ 16 1015.7F   5/ 8   3/ 90/ 8
BUOY 41025       1900   70                 1013.2F  10/ 8
CAPE LOOKOUT NC  1800   51     340/  9/ 11 1014.7F
BUOY 41002       1836   72 72  210/ 10/ 12 1015.4F   5/ 7   5/ 70/ 7
BUOY 41010       1900   76 77  180/ 14/ 16 1015.1F   4/ 7   3/ 50/ 7
ST AUGUSTINE FL  1900   66     170/ 13/ 14 1013.1F


$$



USA.gov is the U.S. government's official web portal to all federal, state and local government web resources and services.